Location: Poprad
(49.0500°N, 20.3000°E)
Time: 19:42:24
(UTC+02:00)

RS-44 - Pass Details

Date: 28 April 2024
Orbit: 1174 x 1511 km, 82.5° (Epoch: 20 May)

Event Time Altitude Azimuth Distance (km) Brightness Sun altitude
Rises 04:18:56 0° 354° (N) 4,294 ? -9.9°
Reaches altitude 10° 04:23:21 10° 17° (NNE) 3,253 ? -9.3°
Maximum altitude 04:27:29 15° 50° (NE) 2,815 ? -8.8°
Drops below altitude 10° 04:31:29 10° 84° (E) 3,145 ? -8.2°
Sets 04:35:36 0° 107° (ESE) 4,071 ? -7.6°
